Regional Weather Roundup
Issued by NWS

Home | Current Version | Previous Version | Graphics & Text | Print | Product List | Glossary On
Versions: 1 2 3 4 5 6 7 8 9 10 11 12 13 14 15 16 17 18 19 20 21 22 23 24 25 26 27 28 29 30 31 32 33 34 35 36 37 38 39 40 41 42 43 44 45 46 47 48 49 50
000
ASUS43 KLMK 021510
RWRKY
KENTUCKY REGIONAL WEATHER ROUNDUP
NATIONAL WEATHER SERVICE LOUISVILLE KY
1100 AM EDT TUE SEP 02 2014

NOTE "FAIR" INDICATES FEW OR NO CLOUDS BELOW 12,000 FEET
WITH NO SIGNIFICANT WEATHER AND/OR OBSTRUCTIONS TO VISIBILITY.

KYZ001>023-026-027-061>063-070>075-021600-
WESTERN AND SOUTH CENTRAL KENTUCKY

CITY           SKY/WX    TMP DP  RH WIND       PRES   REMARKS
PADUCAH        CLOUDY    81  73  76 SW12      29.98R
HENDERSON      CLOUDY    73  70  88 S6        29.97S
OWENSBORO      CLOUDY    75  72  88 MISG      29.99S
HOPKINSVILLE   MOSUNNY   83  76  79 SW13      30.02S HX  90
BOWLING GREEN  MOSUNNY   83  72  69 SW12      30.02S
GLASGOW        MOSUNNY   82  71  68 SW10      30.03S
$$

KYZ024-025-028>034-038-045-046-053-021600-
NORTH CENTRAL KENTUCKY

CITY           SKY/WX    TMP DP  RH WIND       PRES   REMARKS
LOUISVILLE/SDF CLOUDY    75  69  81 S8        29.99S
LOUISVILLE/LOU CLOUDY    73  69  87 S7        30.00R
FORT KNOX      PTSUNNY   74  74 100 S7        30.00R
$$

KYZ035>037-039>044-047>052-055>060-089>105-021600-
NORTHEAST KENTUCKY

CITY           SKY/WX    TMP DP  RH WIND       PRES   REMARKS
LEXINGTON      CLOUDY    76  69  79 S7        30.02F
COVINGTON      CLOUDY    70  67  90 S14       29.96F
FRANKFORT      CLOUDY    72  68  87 S7        29.99F
$$

KYZ054-064>069-076>088-106>120-021600-
SOUTHEAST KENTUCKY

CITY           SKY/WX    TMP DP  RH WIND       PRES   REMARKS
JACKSON        MOSUNNY   80  69  69 CALM      30.08R
LONDON         MOSUNNY   82  69  64 SW16      30.09S
SOMERSET       CLOUDY    81  68  65 W13G18    30.08S
MIDDLESBORO    PTSUNNY   82  71  70 SW5       30.11S
MONTICELLO     MOSUNNY   83  73  71 SW10      30.09S
$$



USA.gov is the U.S. government's official web portal to all federal, state and local government web resources and services.